Weather History for Wilmington, OH

Change the Weather History Date:

Monday, November 11, 2013

  Actual Average (KDAY) Record (KDAY)
Temperature  
Mean Temperature 40 °F 45 °F  
Max Temperature 52 °F 54 °F 75 °F (1902)
Min Temperature 28 °F 36 °F 20 °F (1980)
Degree Days  
Heating Degree Days 25 20  
Month to date heating degree days 199  
Since 1 July heating degree days 646  
Cooling Degree Days 0 0  
Month to date cooling degree days 0  
Year to date cooling degree days 891  
Moisture  
Dew Point 34 °F    
Average Humidity 81    
Maximum Humidity 100    
Minimum Humidity 41    
Precipitation  
Precipitation 0.14 in 0.10 in 1.36 in (2007)
Month to date precipitation 1.15  
Year to date precipitation 35.69  
Snow  
Snow 0.00 in 0.00 in 1.10 in (1986)
Month to date snowfall 0.1  
Since 1 July snowfall 0.5  
Since 1 September snowfall 0.5  
Snow Depth -    
Sea Level Pressure  
Sea Level Pressure 30.22 in    
Wind  
Wind Speed 7 mph (West)    
Max Wind Speed 17 mph    
Max Gust Speed 29 mph    
Visibility 8 miles    
Events Rain , Snow    
T = Trace of Precipitation, MM = Missing Value Source: NWS Daily Summary

Daily Weather History Graph

Daily Weather History Graph

Search for Another Location

Airport:

Trip Planner

Search our weather history database for the weather conditions in past years. The results will help you decide how hot, cold, wet, or windy it might be!

Date:

Astronomy

Nov. 11, 2013 Rise Set
Actual Time 7:14 AM EST 5:23 PM EST
Civil Twilight 6:46 AM EST 5:51 PM EST
Nautical Twilight 6:14 AM EST 6:24 PM EST
Astronomical Twilight 5:42 AM EST 6:55 PM EST
Moon 2:02 PM EST (11/11) 1:00 AM EST (11/11)
Length of Visible Light 11h 05m
Length of Day
10h 08m
Waxing Gibbous, 66% of the Moon is Illuminated
Nov 11
Waxing Gibbous
Nov 17
Full
Nov 25
Last Quarter
Dec 2
New
Dec 9
First Quarter

Hourly Weather History & Observations

Time (EST) Temp. Windchill Dew Point Humidity Pressure Visibility Wind Dir Wind Speed Gust Speed Precip Events Conditions
12:54 AM 30.0 °F - 26.1 °F 85% 30.34 in 9.0 mi Calm Calm - N/A   Clear
1:54 AM 28.9 °F 25.2 °F 26.1 °F 89% 30.36 in 9.0 mi WSW 3.5 mph - N/A   Clear
2:54 AM 28.9 °F - 26.1 °F 89% 30.34 in 8.0 mi Calm Calm - N/A   Scattered Clouds
3:54 AM 28.9 °F - 26.1 °F 89% 30.33 in 8.0 mi Calm Calm - N/A   Clear
4:54 AM 28.9 °F 23.9 °F 28.0 °F 96% 30.35 in 7.0 mi SSW 4.6 mph - N/A   Overcast
5:54 AM 33.1 °F 26.1 °F 28.9 °F 85% 30.31 in 9.0 mi South 8.1 mph - N/A   Overcast
6:54 AM 34.0 °F 29.8 °F 30.0 °F 85% 30.33 in 9.0 mi SW 4.6 mph - N/A   Overcast
7:54 AM 35.1 °F 30.1 °F 30.9 °F 85% 30.34 in 9.0 mi SSW 5.8 mph - N/A   Overcast
8:54 AM 37.9 °F 32.1 °F 30.9 °F 76% 30.32 in 10.0 mi SSW 8.1 mph - N/A   Overcast
9:54 AM 42.1 °F 36.1 °F 32.0 °F 67% 30.28 in 10.0 mi SSW 10.4 mph - N/A   Overcast
10:54 AM 46.0 °F 40.2 °F 30.9 °F 56% 30.27 in 10.0 mi SW 12.7 mph - N/A   Overcast
11:54 AM 48.0 °F - 28.0 °F 46% 30.22 in 10.0 mi SSW 17.3 mph 23.0 mph N/A   Overcast
12:54 PM 50.0 °F - 27.0 °F 41% 30.19 in 10.0 mi SW 16.1 mph - N/A   Overcast
1:54 PM 50.0 °F - 28.9 °F 44% 30.18 in 10.0 mi West 8.1 mph - 0.00 in   Overcast
2:54 PM 52.0 °F - 32.0 °F 47% 30.15 in 10.0 mi SW 6.9 mph - N/A   Overcast
3:54 PM 50.0 °F - 34.0 °F 54% 30.15 in 10.0 mi WSW 10.4 mph - 0.00 in Rain Light Rain
4:54 PM 46.0 °F 41.4 °F 39.9 °F 79% 30.14 in 10.0 mi SW 9.2 mph - 0.02 in Rain Light Rain
5:54 PM 46.9 °F - 39.0 °F 74% 30.14 in 10.0 mi WSW 6.9 mph - 0.00 in   Overcast
6:54 PM 46.9 °F - 39.9 °F 77% 30.15 in 9.0 mi WNW 6.9 mph - 0.00 in Rain Light Rain
7:31 PM 44.6 °F 40.2 °F 41.0 °F 87% 30.10 in 10.0 mi West 8.1 mph - 0.01 in Rain Light Rain
7:54 PM 45.0 °F 41.8 °F 41.0 °F 86% 30.16 in 10.0 mi WNW 5.8 mph - 0.01 in   Overcast
8:39 PM 44.6 °F 40.2 °F 42.8 °F 93% 30.10 in 10.0 mi WNW 8.1 mph - 0.00 in   Overcast
8:54 PM 46.0 °F 41.4 °F 42.1 °F 86% 30.16 in 10.0 mi West 9.2 mph - 0.00 in   Overcast
9:15 PM 44.6 °F 40.2 °F 42.8 °F 93% 30.11 in 9.0 mi West 8.1 mph - N/A   Overcast
9:37 PM 42.8 °F 34.8 °F 39.2 °F 87% 30.14 in 2.5 mi NNW 17.3 mph 24.2 mph 0.00 in Rain Light Rain
9:54 PM 41.0 °F 33.1 °F 39.0 °F 93% 30.20 in 2.5 mi NNW 15.0 mph - 0.03 in Rain Light Rain
9:58 PM 41.0 °F 32.8 °F 39.2 °F 93% 30.15 in 3.0 mi NNW 16.1 mph - 0.01 in   Overcast
10:07 PM 41.0 °F 32.8 °F 39.2 °F 93% 30.15 in 3.0 mi NNW 16.1 mph 21.9 mph 0.01 in Rain Light Rain
10:18 PM 39.2 °F 31.6 °F 39.2 °F 100% 30.16 in 2.5 mi North 12.7 mph - 0.02 in Rain Rain
10:29 PM 39.2 °F 30.5 °F 37.4 °F 93% 30.17 in 4.0 mi North 16.1 mph - 0.03 in Rain Light Rain
10:54 PM 37.9 °F 28.5 °F 36.0 °F 93% 30.24 in 10.0 mi North 17.3 mph 28.8 mph 0.04 in Rain Light Rain
11:13 PM 37.4 °F 28.9 °F 35.6 °F 93% 30.19 in 7.0 mi North 13.8 mph 21.9 mph 0.01 in Rain Light Rain
11:35 PM 35.6 °F 26.2 °F 33.8 °F 93% 30.21 in 5.0 mi North 15.0 mph - 0.03 in Snow Light Snow
11:54 PM 34.0 °F 23.4 °F 32.0 °F 92% 30.27 in 3.0 mi North 17.3 mph 24.2 mph 0.04 in Snow Light Snow